EVA810 VHHH-RCTP

Flight info

Callsign EVA810
Flight time N/A
Altitude 37000
Route DALOL V631 ENVAR M750 EXTRA/N0466F290 M750 TONGA TONGA1A
Aircraft B77W/H-SDE1E2E3FGHIJ2J3J4J5M1RWXY/LB1D1

Departure

Time 2026-05-03 21:40
Airport Hong Kong International Airport (VHHH)

Arrival

Time N/A
Airport Taiwan Taoyuan International Airport (RCTP)
Time Latitude Longitude Altitude Speed Heading
2026-05-03 20:52 22.31393 113.92786 42 ft 0 kts 160°
2026-05-03 21:26 22.31393 113.92785 42 ft 0 kts 160°
2026-05-03 21:26 22.31406 113.92779 42 ft 2 kts 148°
2026-05-03 21:26 22.31418 113.92770 42 ft 2 kts 148°
2026-05-03 21:26 22.31431 113.92762 42 ft 2 kts 150°
2026-05-03 21:27 22.31444 113.92754 42 ft 2 kts 151°
2026-05-03 21:27 22.31457 113.92746 42 ft 2 kts 150°
2026-05-03 21:27 22.31471 113.92738 42 ft 2 kts 150°
2026-05-03 21:27 22.31483 113.92732 42 ft 1 kts 191°
2026-05-03 21:28 22.31495 113.92740 42 ft 1 kts 242°
2026-05-03 21:28 22.31498 113.92754 42 ft 1 kts 288°
2026-05-03 21:28 22.31495 113.92760 42 ft 0 kts 292°
2026-05-03 21:30 22.31496 113.92757 42 ft 2 kts 292°
2026-05-03 21:30 22.31510 113.92722 42 ft 7 kts 293°
2026-05-03 21:30 22.31540 113.92651 42 ft 12 kts 296°
2026-05-03 21:31 22.31586 113.92551 42 ft 16 kts 294°
2026-05-03 21:31 22.31639 113.92426 42 ft 18 kts 288°
2026-05-03 21:31 22.31625 113.92311 42 ft 15 kts 251°
2026-05-03 21:31 22.31589 113.92197 42 ft 16 kts 252°
2026-05-03 21:32 22.31549 113.92074 42 ft 18 kts 250°
2026-05-03 21:32 22.31506 113.91938 42 ft 19 kts 251°
2026-05-03 21:32 22.31417 113.91901 42 ft 13 kts 164°
2026-05-03 21:32 22.31332 113.91929 42 ft 13 kts 162°
2026-05-03 21:33 22.31217 113.91972 42 ft 21 kts 160°
2026-05-03 21:33 22.31051 113.92035 42 ft 27 kts 161°
2026-05-03 21:33 22.30853 113.92110 42 ft 32 kts 161°
2026-05-03 21:33 22.30698 113.92155 42 ft 17 kts 190°
2026-05-03 21:34 22.30624 113.92052 42 ft 21 kts 250°
2026-05-03 21:34 22.30557 113.91828 42 ft 40 kts 250°
2026-05-03 21:34 22.30445 113.91488 42 ft 56 kts 250°
2026-05-03 21:34 22.30332 113.91136 42 ft 34 kts 251°
2026-05-03 21:35 22.30247 113.90874 42 ft 40 kts 251°
2026-05-03 21:35 22.30143 113.90550 42 ft 50 kts 251°
2026-05-03 21:35 22.30018 113.90165 42 ft 56 kts 251°
2026-05-03 21:35 22.29933 113.89910 42 ft 28 kts 237°
2026-05-03 21:36 22.29830 113.89758 42 ft 0 kts 227°
2026-05-03 21:36 22.29826 113.89756 42 ft 1 kts 204°
2026-05-03 21:36 22.29783 113.89754 42 ft 10 kts 171°
2026-05-03 21:36 22.29686 113.89787 42 ft 18 kts 159°
2026-05-03 21:37 22.29638 113.89823 42 ft 6 kts 97°
2026-05-03 21:37 22.29639 113.89841 42 ft 0 kts 82°
2026-05-03 21:38 22.29639 113.89843 42 ft 1 kts 81°
2026-05-03 21:38 22.29646 113.89878 42 ft 8 kts 73°
2026-05-03 21:38 22.29674 113.89970 42 ft 16 kts 72°
2026-05-03 21:38 22.29676 113.89979 42 ft 0 kts 72°
2026-05-03 21:39 22.29677 113.89980 42 ft 2 kts 70°
2026-05-03 21:39 22.29705 113.90067 42 ft 38 kts 70°
2026-05-03 21:39 22.29895 113.90653 42 ft 124 kts 71°
2026-05-03 21:40 22.30254 113.91796 190 ft 185 kts 71°
2026-05-03 21:40 22.30680 113.93159 1064 ft 196 kts 68°
2026-05-03 21:40 22.31117 113.94456 2363 ft 192 kts 69°
2026-05-03 21:40 22.31554 113.95797 3407 ft 193 kts 70°
2026-05-03 21:41 22.32010 113.97215 4126 ft 208 kts 70°
2026-05-03 21:41 22.32496 113.98729 4850 ft 224 kts 70°
2026-05-03 21:41 22.33029 114.00384 5617 ft 241 kts 70°
2026-05-03 21:41 22.33826 114.02000 6353 ft 257 kts 46°
2026-05-03 21:42 22.35289 114.03149 7058 ft 272 kts 25°
2026-05-03 21:42 22.37063 114.04058 7865 ft 289 kts 22°
2026-05-03 21:42 22.38910 114.05009 8709 ft 304 kts 23°
2026-05-03 21:42 22.40874 114.06053 9554 ft 320 kts 23°
2026-05-03 21:43 22.42902 114.07146 10412 ft 335 kts 23°
2026-05-03 21:43 22.45012 114.08285 11261 ft 350 kts 24°
2026-05-03 21:43 22.47134 114.09704 12069 ft 368 kts 37°
2026-05-03 21:43 22.48985 114.11726 12884 ft 385 kts 50°
2026-05-03 21:44 22.50472 114.14182 13753 ft 397 kts 62°
2026-05-03 21:44 22.51516 114.16946 14693 ft 404 kts 74°
2026-05-03 21:44 22.52074 114.19940 15489 ft 415 kts 85°
2026-05-03 21:44 22.52083 114.23075 16195 ft 427 kts 98°
2026-05-03 21:45 22.51491 114.26224 16884 ft 436 kts 110°
2026-05-03 21:45 22.50255 114.29267 17656 ft 441 kts 124°
2026-05-03 21:45 22.48466 114.31922 18491 ft 440 kts 136°
2026-05-03 21:45 22.46234 114.34129 19302 ft 440 kts 147°
2026-05-03 21:46 22.43654 114.35910 20129 ft 439 kts 157°
2026-05-03 21:46 22.40942 114.37465 20913 ft 446 kts 154°
2026-05-03 21:46 22.38312 114.39343 21641 ft 457 kts 147°
2026-05-03 21:46 22.35841 114.41509 22325 ft 467 kts 143°
2026-05-03 21:47 22.33432 114.43927 23021 ft 475 kts 140°
2026-05-03 21:47 22.31101 114.46485 23560 ft 486 kts 137°
2026-05-03 21:47 22.28783 114.49196 24000 ft 498 kts 136°
2026-05-03 21:47 22.26450 114.52048 24407 ft 510 kts 135°
2026-05-03 21:48 22.24133 114.54969 24855 ft 519 kts 134°
2026-05-03 21:48 22.21790 114.57984 25383 ft 525 kts 133°
2026-05-03 21:48 22.19459 114.61025 25981 ft 527 kts 133°
2026-05-03 21:48 22.17124 114.64101 26578 ft 529 kts 133°
2026-05-03 21:49 22.14799 114.67181 27097 ft 533 kts 133°
2026-05-03 21:49 22.12463 114.70289 27525 ft 537 kts 133°
2026-05-03 21:49 22.10111 114.73429 27842 ft 542 kts 133°
2026-05-03 21:49 22.07707 114.76645 27942 ft 551 kts 133°
2026-05-03 21:50 22.05305 114.79858 28080 ft 554 kts 133°
2026-05-03 21:50 22.02923 114.83021 29003 ft 544 kts 133°
2026-05-03 21:50 22.00494 114.86181 29438 ft 545 kts 134°
2026-05-03 21:50 21.98112 114.89343 30064 ft 541 kts 132°
2026-05-03 21:51 21.95851 114.92468 31499 ft 519 kts 132°
2026-05-03 21:51 21.93693 114.95464 32652 ft 503 kts 133°
2026-05-03 21:51 21.91542 114.98370 33090 ft 504 kts 133°
2026-05-03 21:51 21.89299 115.01370 33123 ft 513 kts 133°
2026-05-03 21:52 21.87035 115.04400 33457 ft 515 kts 133°
2026-05-03 21:52 21.84823 115.07362 34239 ft 508 kts 133°
2026-05-03 21:52 21.82607 115.10332 35040 ft 501 kts 133°
2026-05-03 21:52 21.80457 115.13212 35828 ft 492 kts 133°
2026-05-03 21:53 21.78375 115.16090 36600 ft 484 kts 127°
2026-05-03 21:53 21.76628 115.19230 36957 ft 487 kts 118°
2026-05-03 21:53 21.74501 115.26272 36968 ft 502 kts 100°
2026-05-03 21:54 21.74196 115.33890 36966 ft 516 kts 90°
2026-05-03 21:54 21.74228 115.41743 36972 ft 528 kts 90°
2026-05-03 21:55 21.74233 115.49696 36973 ft 541 kts 90°
2026-05-03 21:55 21.74221 115.57868 36974 ft 552 kts 90°
2026-05-03 21:56 21.74200 115.66165 36970 ft 557 kts 91°
2026-05-03 21:56 21.74171 115.74493 36965 ft 558 kts 91°
2026-05-03 21:57 21.74136 115.82797 36967 ft 559 kts 91°
2026-05-03 21:57 21.74095 115.91130 36963 ft 557 kts 91°
2026-05-03 21:58 21.74051 115.99197 36967 ft 559 kts 91°
2026-05-03 21:58 21.74001 116.07552 36969 ft 558 kts 91°
2026-05-03 21:59 21.73946 116.15891 36968 ft 557 kts 91°
2026-05-03 21:59 21.73888 116.24219 36969 ft 558 kts 91°
2026-05-03 22:00 21.73824 116.32558 36967 ft 558 kts 91°
2026-05-03 22:00 21.73757 116.40915 36969 ft 559 kts 91°
2026-05-03 22:01 21.73685 116.49256 36972 ft 559 kts 91°
2026-05-03 22:01 21.73609 116.57586 36970 ft 559 kts 91°
2026-05-03 22:02 21.73529 116.65980 36970 ft 558 kts 91°
2026-05-03 22:02 21.73499 116.74297 36958 ft 558 kts 87°
2026-05-03 22:03 21.74894 116.82495 36964 ft 558 kts 71°
2026-05-03 22:03 21.77648 116.90310 36967 ft 559 kts 68°
2026-05-03 22:04 21.80460 116.98039 36967 ft 558 kts 68°
2026-05-03 22:04 21.83281 117.05821 36969 ft 558 kts 68°
2026-05-03 22:05 21.86077 117.13557 36971 ft 557 kts 68°
2026-05-03 22:05 21.88874 117.21318 36972 ft 558 kts 68°
2026-05-03 22:06 21.91683 117.29127 36973 ft 559 kts 68°
2026-05-03 22:06 21.94472 117.36895 36974 ft 559 kts 68°
2026-05-03 22:07 21.97269 117.44701 36974 ft 560 kts 68°
2026-05-03 22:07 22.00475 117.52303 36980 ft 557 kts 57°
2026-05-03 22:08 22.04499 117.59425 36980 ft 556 kts 56°
2026-05-03 22:08 22.08523 117.66499 36971 ft 555 kts 57°
2026-05-03 22:09 22.12551 117.73593 36970 ft 556 kts 57°
2026-05-03 22:10 22.18613 117.84298 36969 ft 557 kts 57°
2026-05-03 22:10 22.22632 117.91409 36972 ft 557 kts 57°
2026-05-03 22:11 22.26654 117.98535 36971 ft 556 kts 57°
2026-05-03 22:11 22.30752 118.05665 36967 ft 557 kts 56°
2026-05-03 22:12 22.34878 118.12718 36959 ft 557 kts 56°
2026-05-03 22:12 22.39007 118.19794 36961 ft 558 kts 56°
2026-05-03 22:13 22.43117 118.26950 36968 ft 560 kts 56°
2026-05-03 22:13 22.47157 118.34090 36971 ft 559 kts 56°
2026-05-03 22:14 22.51209 118.41259 36971 ft 560 kts 56°
2026-05-03 22:14 22.55247 118.48410 36974 ft 559 kts 56°
2026-05-03 22:15 22.59311 118.55584 36974 ft 560 kts 56°
2026-05-03 22:15 22.63414 118.62781 36838 ft 561 kts 56°
2026-05-03 22:15 22.65437 118.66334 36593 ft 562 kts 56°
2026-05-03 22:16 22.67484 118.69932 36328 ft 561 kts 56°
2026-05-03 22:16 22.69538 118.73545 36064 ft 562 kts 57°
2026-05-03 22:16 22.71580 118.77139 35804 ft 564 kts 57°
2026-05-03 22:16 22.73627 118.80746 35541 ft 563 kts 57°
2026-05-03 22:17 22.75675 118.84356 35284 ft 565 kts 57°
2026-05-03 22:17 22.77739 118.87999 35025 ft 566 kts 57°
2026-05-03 22:17 22.79777 118.91597 34762 ft 566 kts 57°
2026-05-03 22:17 22.81852 118.95264 34430 ft 568 kts 57°
2026-05-03 22:18 22.83933 118.98943 34089 ft 567 kts 57°
2026-05-03 22:18 22.85987 119.02578 33954 ft 562 kts 57°
2026-05-03 22:18 22.88014 119.06168 33952 ft 563 kts 57°
2026-05-03 22:18 22.90076 119.09822 33760 ft 567 kts 57°
2026-05-03 22:19 22.92125 119.13454 33235 ft 567 kts 57°
2026-05-03 22:19 22.94172 119.17088 32957 ft 558 kts 57°
2026-05-03 22:19 22.96172 119.20641 32955 ft 553 kts 57°
2026-05-03 22:20 23.00235 119.27863 32958 ft 558 kts 57°
2026-05-03 22:20 23.04278 119.35059 32959 ft 558 kts 57°
2026-05-03 22:21 23.08326 119.42275 32963 ft 560 kts 57°
2026-05-03 22:21 23.12355 119.49468 32959 ft 560 kts 57°
2026-05-03 22:22 23.16747 119.56474 32957 ft 558 kts 46°
2026-05-03 22:22 23.22473 119.62016 32961 ft 551 kts 30°
2026-05-03 22:23 23.29052 119.66274 32957 ft 548 kts 26°
2026-05-03 22:23 23.32376 119.68355 32722 ft 552 kts 26°
2026-05-03 22:23 23.35700 119.70438 32150 ft 553 kts 26°
2026-05-03 22:23 23.39012 119.72520 31575 ft 548 kts 26°
2026-05-03 22:24 23.42276 119.74574 31011 ft 543 kts 27°
2026-05-03 22:24 23.45565 119.76646 30440 ft 538 kts 26°
2026-05-03 22:24 23.48769 119.78670 29874 ft 534 kts 27°
2026-05-03 22:24 23.51924 119.80800 29307 ft 531 kts 29°
2026-05-03 22:25 23.55019 119.82943 28744 ft 526 kts 29°
2026-05-03 22:25 23.58105 119.85082 28170 ft 522 kts 29°
2026-05-03 22:25 23.61124 119.87173 27603 ft 518 kts 29°
2026-05-03 22:25 23.64163 119.89275 27033 ft 514 kts 29°
2026-05-03 22:26 23.67188 119.91367 26462 ft 510 kts 29°
2026-05-03 22:26 23.70181 119.93436 25893 ft 506 kts 28°
2026-05-03 22:26 23.73109 119.95461 25325 ft 502 kts 29°
2026-05-03 22:26 23.76068 119.97507 24750 ft 498 kts 29°
2026-05-03 22:27 23.78984 119.99524 24189 ft 494 kts 29°
2026-05-03 22:27 23.81879 120.01527 23627 ft 491 kts 28°
2026-05-03 22:27 23.84742 120.03508 23075 ft 487 kts 29°
2026-05-03 22:27 23.87582 120.05474 22533 ft 484 kts 28°
2026-05-03 22:28 23.90423 120.07442 22000 ft 480 kts 28°
2026-05-03 22:28 23.93254 120.09403 21465 ft 477 kts 28°
2026-05-03 22:28 23.96035 120.11331 20940 ft 473 kts 28°
2026-05-03 22:28 23.98800 120.13248 20413 ft 470 kts 29°
2026-05-03 22:29 24.01539 120.15150 19895 ft 467 kts 28°
2026-05-03 22:29 24.04302 120.17068 19354 ft 464 kts 29°
2026-05-03 22:29 24.07011 120.18949 18833 ft 462 kts 29°
2026-05-03 22:29 24.09727 120.20836 18298 ft 459 kts 29°
2026-05-03 22:30 24.12374 120.22677 17772 ft 456 kts 29°
2026-05-03 22:30 24.15049 120.24538 17246 ft 454 kts 29°
2026-05-03 22:30 24.17710 120.26389 16711 ft 451 kts 29°
2026-05-03 22:30 24.20353 120.28230 16176 ft 449 kts 29°
2026-05-03 22:31 24.22999 120.30074 15625 ft 446 kts 30°
2026-05-03 22:31 24.25591 120.31880 15084 ft 444 kts 30°
2026-05-03 22:31 24.28204 120.33703 14558 ft 441 kts 30°
2026-05-03 22:31 24.30758 120.35485 14025 ft 439 kts 30°
2026-05-03 22:32 24.33349 120.37294 13498 ft 436 kts 30°
2026-05-03 22:32 24.35901 120.39076 12953 ft 434 kts 30°
2026-05-03 22:32 24.38406 120.40827 12418 ft 431 kts 30°
2026-05-03 22:32 24.40934 120.42594 11882 ft 428 kts 30°
2026-05-03 22:33 24.43426 120.44338 11326 ft 425 kts 30°
2026-05-03 22:33 24.45935 120.46094 10785 ft 422 kts 30°
2026-05-03 22:33 24.48402 120.47821 10183 ft 416 kts 30°
2026-05-03 22:33 24.50797 120.49500 9744 ft 397 kts 30°
2026-05-03 22:34 24.53043 120.51076 9393 ft 379 kts 30°
2026-05-03 22:34 24.55229 120.52609 9044 ft 363 kts 30°
2026-05-03 22:34 24.57338 120.54087 8760 ft 358 kts 30°
2026-05-03 22:34 24.59420 120.55547 8437 ft 354 kts 30°
2026-05-03 22:35 24.61483 120.56994 8090 ft 350 kts 30°
2026-05-03 22:35 24.63525 120.58426 7734 ft 347 kts 31°
2026-05-03 22:35 24.65553 120.59851 7378 ft 343 kts 31°
2026-05-03 22:35 24.67523 120.61313 7027 ft 340 kts 37°
2026-05-03 22:36 24.69322 120.63002 6674 ft 337 kts 40°
2026-05-03 22:36 24.71058 120.64713 6312 ft 334 kts 41°
2026-05-03 22:36 24.72787 120.66422 5946 ft 331 kts 41°
2026-05-03 22:36 24.74495 120.68107 5580 ft 328 kts 41°
2026-05-03 22:37 24.76191 120.69776 5210 ft 325 kts 42°
2026-05-03 22:37 24.77856 120.71413 4864 ft 322 kts 42°
2026-05-03 22:37 24.79514 120.73045 4425 ft 315 kts 42°
2026-05-03 22:37 24.81117 120.74622 4073 ft 300 kts 43°
2026-05-03 22:38 24.82623 120.76105 3973 ft 278 kts 43°
2026-05-03 22:38 24.84022 120.77483 3968 ft 265 kts 43°
2026-05-03 22:38 24.85354 120.78794 3966 ft 250 kts 43°
2026-05-03 22:38 24.86616 120.80039 3965 ft 239 kts 43°
2026-05-03 22:39 24.87847 120.81252 3985 ft 228 kts 43°
2026-05-03 22:39 24.88996 120.82385 3966 ft 214 kts 43°
2026-05-03 22:39 24.90088 120.83463 3971 ft 210 kts 43°
2026-05-03 22:39 24.91175 120.84544 3967 ft 209 kts 46°
2026-05-03 22:40 24.92002 120.85783 3949 ft 192 kts 69°
2026-05-03 22:40 24.92307 120.87132 3965 ft 174 kts 77°
2026-05-03 22:40 24.92530 120.88416 3975 ft 167 kts 77°
2026-05-03 22:40 24.92739 120.89616 3960 ft 152 kts 77°
2026-05-03 22:41 24.92935 120.90749 3972 ft 148 kts 77°
2026-05-03 22:41 24.93127 120.91850 3972 ft 147 kts 77°
2026-05-03 22:41 24.93322 120.92968 3977 ft 146 kts 77°
2026-05-03 22:41 24.93508 120.94040 3974 ft 142 kts 77°
2026-05-03 22:42 24.93696 120.95119 3976 ft 143 kts 77°
2026-05-03 22:42 24.93884 120.96195 3977 ft 142 kts 77°
2026-05-03 22:42 24.94072 120.97275 3982 ft 143 kts 77°
2026-05-03 22:42 24.94259 120.98350 3984 ft 142 kts 77°
2026-05-03 22:43 24.94442 120.99406 3976 ft 140 kts 77°
2026-05-03 22:43 24.94553 121.00482 3918 ft 144 kts 86°
2026-05-03 22:43 24.94552 121.01554 3867 ft 137 kts 87°
2026-05-03 22:43 24.94546 121.02622 3888 ft 140 kts 87°
2026-05-03 22:44 24.94541 121.03693 3911 ft 141 kts 87°
2026-05-03 22:44 24.94539 121.04778 3902 ft 140 kts 87°
2026-05-03 22:44 24.94536 121.05854 3905 ft 140 kts 87°
2026-05-03 22:44 24.94727 121.06897 3815 ft 142 kts 66°
2026-05-03 22:45 24.95108 121.07888 3606 ft 139 kts 67°
2026-05-03 22:45 24.95473 121.08843 3295 ft 134 kts 59°
2026-05-03 22:45 24.96085 121.09563 3022 ft 124 kts 53°
2026-05-03 22:45 24.96565 121.10371 2872 ft 126 kts 53°
2026-05-03 22:46 24.97132 121.11110 2716 ft 124 kts 50°
2026-05-03 22:46 24.97704 121.11817 2554 ft 123 kts 50°
2026-05-03 22:46 24.98275 121.12529 2393 ft 123 kts 50°
2026-05-03 22:46 24.98838 121.13236 2240 ft 122 kts 50°
2026-05-03 22:47 24.99397 121.13937 2090 ft 121 kts 50°
2026-05-03 22:47 24.99951 121.14633 1931 ft 120 kts 50°
2026-05-03 22:47 25.00497 121.15320 1776 ft 119 kts 51°
2026-05-03 22:47 25.01049 121.16017 1613 ft 120 kts 50°
2026-05-03 22:48 25.01598 121.16708 1470 ft 121 kts 51°
2026-05-03 22:48 25.02154 121.17410 1311 ft 121 kts 51°
2026-05-03 22:48 25.02717 121.18120 1149 ft 123 kts 50°
2026-05-03 22:48 25.03292 121.18845 977 ft 126 kts 50°
2026-05-03 22:49 25.03871 121.19575 815 ft 128 kts 50°
2026-05-03 22:49 25.04463 121.20321 640 ft 129 kts 50°
2026-05-03 22:49 25.05074 121.21055 467 ft 131 kts 48°
2026-05-03 22:49 25.05660 121.21808 303 ft 128 kts 50°
2026-05-03 22:50 25.06251 121.22554 151 ft 129 kts 50°
2026-05-03 22:50 25.06783 121.23237 122 ft 93 kts 50°
2026-05-03 22:50 25.07158 121.23718 122 ft 72 kts 48°